#timestamp,LO_Frequency,Hit,StdDev 
1704402015.2,286046996.6,P
1704402035.1,286046996.6,N
1704402036.0,286046996.6,N
1704402055.8,286046996.8,N
1704402075.6,286046999.5,N
1704402095.5,286046999.6,N
1704402115.3,286046996.8,N
1704402135.1,286046996.6,N
1704402155.9,286046997.8,N
1704402175.7,286046995.6,Y
1704402195.6,286046996.5,P
1704402215.4,286046998.5,N
1704402235.2,286046999.0,N
1704402255.1,286046998.8,N
1704402256.0,286046998.8,N
1704402275.8,286046999.5,N
1704402295.7,286046996.5,Y
1704402315.5,286047001.1,P
1704402335.3,286047000.7,N
1704402355.2,286047000.5,N
1704402375.0,286047000.3,N
1704402375.9,286047000.3,N
1704402395.7,286047000.3,N
1704402415.6,286046998.5,N
1704402435.4,286046998.2,N
1704402455.3,286046998.8,N
1704402475.1,286046999.1,N
1704402476.0,286046999.1,N
1704402495.8,286046996.5,Y
1704402515.7,286046999.5,P
1704402535.5,286046997.0,P
1704402555.4,286046997.2,N
1704402575.2,286046996.7,N
1704402595.0,286046996.7,N
1704402595.9,286046996.7,N
1704402615.8,286046997.2,N
1704402635.6,286046997.2,N
1704402655.4,286046997.8,N
1704402675.3,286046997.7,N
1704402695.1,286046997.0,Y
1704402715.9,286046998.6,P
1704402735.7,286046998.3,P
1704402755.5,286046998.5,P
1704402775.4,286046998.8,Y
1704402795.2,286047000.3,P
1704402815.0,286047000.5,N
1704402816.0,286047000.5,N
1704402835.8,286047000.5,N
1704402855.6,286047000.9,N
1704402875.5,286047000.6,N
1704402895.3,286047000.1,N
1704402915.1,286047000.3,N
1704402935.9,286047000.5,N
1704402955.7,286047000.7,N
1704402975.6,286047002.8,Y
1704402995.4,286047001.0,P
1704403015.2,286047001.2,P
1704403035.1,286047000.5,N
1704403036.0,286047000.5,N
1704403055.8,286047000.7,N
1704403075.6,286047001.0,Y
1704403095.5,286046998.7,P
1704403115.3,286047001.2,N
1704403135.2,286046999.6,N
1704403155.9,286046999.0,N
1704403175.7,286046999.1,N
1704403195.6,286046998.6,N
1704403215.4,286046998.4,N
1704403235.2,286047001.1,N
1704403255.1,286046998.3,N
1704403256.0,286046998.3,N
1704403275.8,286046998.7,N
1704403295.7,286046998.7,N
1704403315.5,286046998.4,N
1704403335.3,286046999.3,N
1704403355.2,286046998.3,N
1704403375.0,286046998.4,N
1704403375.9,286046998.4,N
1704403395.7,286046999.3,N
1704403415.6,286046999.6,N
1704403435.4,286046996.8,Y
1704403455.3,286046998.8,P
1704403475.1,286046998.4,P
1704403476.0,286046998.4,P
1704403495.8,286047000.7,N
1704403515.7,286046998.4,N
1704403535.5,286046998.5,N
1704403555.3,286046998.6,N
1704403575.2,286046998.4,N
1704403595.0,286047000.7,N
1704403595.9,286047000.7,N
1704403615.8,286046998.6,N
1704403635.6,286046998.6,N
1704403655.4,286046999.0,N
1704403675.3,286046999.0,N
1704403695.1,286046999.4,N
1704403715.8,286046999.3,N
1704403735.7,286046998.8,N
1704403755.5,286046998.3,N
1704403775.4,286046998.2,N
1704403795.2,286046998.1,N
1704403815.0,286046998.3,N
1704403815.9,286046998.3,N
1704403835.8,286046999.4,N
1704403855.6,286046998.7,N
1704403875.4,286046998.7,N
1704403895.3,286046998.6,N
1704403915.1,286046999.6,N
1704403935.9,286046998.8,N
1704403955.7,286046999.2,N
1704403975.5,286046998.7,N
1704403995.4,286046998.6,N
1704404015.2,286046998.1,N
1704404035.0,286047000.0,N
1704404035.9,286047000.0,N
1704404055.8,286047001.1,N
1704404075.6,286047002.7,Y
1704404095.5,286047002.5,P
1704404115.3,286047001.9,N
1704404135.1,286047002.1,N
1704404155.9,286047002.1,N
1704404175.7,286047002.0,N
1704404195.6,286047001.4,N
1704404215.4,286047002.2,N
1704404235.2,286047011.9,Y
1704404255.1,286047000.7,P
1704404256.0,286047000.7,N
1704404275.8,286047000.9,N
1704404295.6,286046999.8,N
1704404315.5,286047000.9,N
1704404335.3,286046999.9,N
1704404355.2,286047000.1,N
1704404375.9,286047002.8,Y
1704404395.7,286047000.2,P
1704404415.6,286047002.7,P
1704404435.4,286047000.1,N
1704404455.3,286047000.2,N
1704404475.1,286047002.8,N
1704404476.0,286047002.8,N
1704404495.8,286047002.1,N
1704404515.7,286047001.6,N
1704404535.5,286047004.4,Y
1704404555.4,286047002.4,P
1704404575.2,286047002.5,P
1704404595.0,286047002.6,P
1704404595.9,286047002.6,Y
1704404615.8,286047000.6,P
1704404635.6,286047000.2,N
1704404655.5,286046999.8,N
1704404675.3,286047000.2,N
1704404695.1,286047002.6,Y
1704404715.9,286047002.0,P
1704404735.7,286047002.2,P
1704404755.5,286047001.4,N
1704404775.4,286047002.1,Y
1704404795.2,286047002.2,P
1704404815.1,286047002.1,P
1704404816.0,286047002.1,P
1704404835.8,286047001.3,Y
1704404855.7,286047002.7,P
1704404875.5,286046999.8,N
1704404895.3,286047000.5,N
1704404915.2,286047000.2,N
1704404935.9,286046999.8,N
1704404955.7,286047002.1,N
1704404975.6,286047001.8,N
1704404995.4,286047001.8,N
1704405015.3,286047004.1,Y
1704405035.1,286047002.1,P
1704405036.0,286047002.1,P
1704405055.8,286047003.9,P
1704405075.7,286047003.6,Y
1704405095.5,286047002.0,P
1704405115.3,286047001.6,P
1704405135.2,286047004.3,P
1704405155.0,286047003.8,Y
1704405155.9,286047003.8,P
1704405175.8,286047000.4,N
1704405195.6,286047000.3,N
1704405215.4,286046999.7,N
1704405235.3,286047011.9,Y
1704405255.1,286047002.6,P
1704405275.9,286047001.7,N
1704405295.7,286047003.8,P
1704405315.5,286047003.3,Y
1704405335.4,286047001.5,P
1704405355.2,286047004.4,P
1704405375.1,286047003.1,N
1704405376.0,286047003.1,N
1704405395.8,286047002.9,N
1704405415.6,286047003.2,Y
1704405435.5,286047002.4,P
1704405455.3,286047002.7,P
1704405475.1,286047011.9,P
1704405495.9,286047003.6,N
1704405515.7,286047004.1,N
1704405535.6,286047004.4,N
1704405555.4,286047003.3,N
1704405575.2,286047007.1,N
1704405595.1,286047007.5,N
1704405596.0,286047007.5,N
